Time,TemperatureF,DewpointF,PressureIn,WindDirection,WindDirectionDegrees,WindSpeedMPH,WindSpeedGustMPH,Humidity,HourlyPrecipIn,Conditions,Clouds,dailyrainin,SolarRadiationWatts/m^2,SoftwareType,DateUTC
2013-05-01 00:00:00,63.5,63.2,30.09,NW,325,1.0,1.0,99,0.00,,,0.00,0,Wunderground v.1.15,2013-05-01 10:00:00,
2013-05-01 00:10:00,63.2,62.9,30.09,NW,325,1.0,1.0,99,0.00,,,0.00,0,Wunderground v.1.15,2013-05-01 10:10:00,
2013-05-01 00:20:00,63.1,62.8,30.09,NW,324,1.0,1.0,99,0.00,,,0.00,0,Wunderground v.1.15,2013-05-01 10:20:00,
2013-05-01 00:25:00,63.5,62.9,30.08,NW,323,2.0,2.0,98,0.00,,,0.00,0,Wunderground v.1.15,2013-05-01 10:25:00,
2013-05-01 00:30:00,63.5,62.9,30.08,NW,323,1.0,1.0,98,0.00,,,0.00,0,Wunderground v.1.15,2013-05-01 10:30:00,
2013-05-01 00:35:00,63.4,62.8,30.08,NW,324,1.0,4.0,98,0.00,,,0.00,0,Wunderground v.1.15,2013-05-01 10:35:00,
2013-05-01 00:45:00,63.4,62.5,30.08,NW,324,3.0,4.0,97,0.00,,,0.00,0,Wunderground v.1.15,2013-05-01 10:45:00,
2013-05-01 00:50:00,63.4,62.5,30.08,NW,324,3.0,3.0,97,0.00,,,0.00,0,Wunderground v.1.15,2013-05-01 10:50:00,
2013-05-01 00:55:00,63.3,62.4,30.08,NW,324,3.0,3.0,97,0.00,,,0.00,0,Wunderground v.1.15,2013-05-01 10:55:00,
2013-05-01 01:00:00,62.9,62.0,30.07,NW,324,3.0,3.0,97,0.00,,,0.00,0,Wunderground v.1.15,2013-05-01 11:00:00,
2013-05-01 01:10:00,62.5,61.9,30.07,NNW,329,3.0,3.0,98,0.00,,,0.00,0,Wunderground v.1.15,2013-05-01 11:10:00,
2013-05-01 01:15:00,62.2,61.6,30.07,NNW,329,2.0,3.0,98,0.00,,,0.00,0,Wunderground v.1.15,2013-05-01 11:15:00,
2013-05-01 01:25:00,61.9,61.6,30.06,NNW,329,1.0,2.0,99,0.00,,,0.00,0,Wunderground v.1.15,2013-05-01 11:25:00,
2013-05-01 01:30:00,61.8,61.5,30.06,NNW,329,1.0,3.0,99,0.00,,,0.00,0,Wunderground v.1.15,2013-05-01 11:30:00,
2013-05-01 01:35:00,61.7,61.4,30.06,NNW,329,1.0,3.0,99,0.00,,,0.00,0,Wunderground v.1.15,2013-05-01 11:35:00,
2013-05-01 01:40:00,61.6,61.3,30.06,NNW,329,1.0,2.0,99,0.00,,,0.00,0,Wunderground v.1.15,2013-05-01 11:40:00,
2013-05-01 01:50:00,61.4,61.4,30.06,NNW,329,2.0,2.0,100,0.00,,,0.00,0,Wunderground v.1.15,2013-05-01 11:50:00,
2013-05-01 01:55:00,61.5,61.5,30.06,NNW,329,2.0,2.0,100,0.00,,,0.00,0,Wunderground v.1.15,2013-05-01 11:55:00,
2013-05-01 02:00:00,61.5,61.2,30.05,NNW,329,2.0,2.0,99,0.00,,,0.00,0,Wunderground v.1.15,2013-05-01 12:00:00,
2013-05-01 02:10:00,61.3,61.3,30.05,NNW,329,2.0,2.0,100,0.00,,,0.00,0,Wunderground v.1.15,2013-05-01 12:10:00,
2013-05-01 02:15:00,61.2,60.9,30.04,NNW,329,2.0,2.0,99,0.00,,,0.00,0,Wunderground v.1.15,2013-05-01 12:15:00,
2013-05-01 02:20:00,61.1,61.1,30.05,NNW,329,2.0,2.0,100,0.00,,,0.00,0,Wunderground v.1.15,2013-05-01 12:20:00,
2013-05-01 02:30:00,60.9,60.9,30.04,NNW,329,2.0,4.0,100,0.00,,,0.00,0,Wunderground v.1.15,2013-05-01 12:30:00,
2013-05-01 02:35:00,60.9,60.9,30.04,NNW,329,2.0,4.0,100,0.00,,,0.00,0,Wunderground v.1.15,2013-05-01 12:35:00,
2013-05-01 02:40:00,60.8,60.8,30.04,NNW,329,1.0,1.0,100,0.00,,,0.00,0,Wunderground v.1.15,2013-05-01 12:40:00,
2013-05-01 02:50:00,60.7,60.7,30.04,NNW,329,3.0,4.0,100,0.00,,,0.00,0,Wunderground v.1.15,2013-05-01 12:50:00,
2013-05-01 02:55:00,60.7,60.4,30.04,NNW,329,3.0,4.0,99,0.00,,,0.00,0,Wunderground v.1.15,2013-05-01 12:55:00,
2013-05-01 03:00:00,60.6,60.3,30.04,NNW,329,3.0,3.0,99,0.00,,,0.00,0,Wunderground v.1.15,2013-05-01 13:00:00,
2013-05-01 03:10:00,60.6,60.3,30.04,NNW,330,3.0,3.0,99,0.00,,,0.00,0,Wunderground v.1.15,2013-05-01 13:10:00,
2013-05-01 03:15:00,60.6,60.3,30.04,NNW,330,2.0,4.0,99,0.00,,,0.00,0,Wunderground v.1.15,2013-05-01 13:15:00,
2013-05-01 03:25:00,60.6,60.3,30.04,NNW,330,1.0,2.0,99,0.00,,,0.00,0,Wunderground v.1.15,2013-05-01 13:25:00,
2013-05-01 03:30:00,60.5,60.2,30.04,NNW,330,1.0,5.0,99,0.00,,,0.00,0,Wunderground v.1.15,2013-05-01 13:30:00,
2013-05-01 03:35:00,60.4,60.1,30.04,NNW,330,3.0,5.0,99,0.00,,,0.00,0,Wunderground v.1.15,2013-05-01 13:35:00,
2013-05-01 03:40:00,60.3,60.0,30.04,NNW,330,3.0,3.0,99,0.00,,,0.00,0,Wunderground v.1.15,2013-05-01 13:40:00,
2013-05-01 03:45:00,60.4,60.1,30.04,NNW,330,3.0,3.0,99,0.00,,,0.00,0,Wunderground v.1.15,2013-05-01 13:45:00,
2013-05-01 03:55:00,60.4,60.1,30.04,NNW,330,2.0,3.0,99,0.00,,,0.00,0,Wunderground v.1.15,2013-05-01 13:55:00,
2013-05-01 04:00:00,60.3,60.0,30.04,NNW,330,2.0,2.0,99,0.00,,,0.00,0,Wunderground v.1.15,2013-05-01 14:00:00,
2013-05-01 04:10:00,60.9,60.6,30.04,NNW,330,3.0,3.0,99,0.00,,,0.00,0,Wunderground v.1.15,2013-05-01 14:10:00,
2013-05-01 04:15:00,61.1,60.5,30.05,NNW,330,3.0,3.0,98,0.00,,,0.00,0,Wunderground v.1.15,2013-05-01 14:15:00,
2013-05-01 04:20:00,61.0,60.4,30.05,NNW,331,2.0,4.0,98,0.00,,,0.00,0,Wunderground v.1.15,2013-05-01 14:20:00,
2013-05-01 04:30:00,60.7,60.1,30.05,NNW,331,1.0,1.0,98,0.00,,,0.00,0,Wunderground v.1.15,2013-05-01 14:30:00,
2013-05-01 04:35:00,60.6,60.3,30.05,NNW,330,2.0,3.0,99,0.00,,,0.00,0,Wunderground v.1.15,2013-05-01 14:35:00,
2013-05-01 04:40:00,60.6,60.3,30.05,NNW,330,2.0,2.0,99,0.00,,,0.00,0,Wunderground v.1.15,2013-05-01 14:40:00,
2013-05-01 04:50:00,61.0,60.4,30.05,NNW,330,2.0,2.0,98,0.00,,,0.00,0,Wunderground v.1.15,2013-05-01 14:50:00,
2013-05-01 04:55:00,61.2,60.6,30.05,NNW,330,2.0,2.0,98,0.00,,,0.00,0,Wunderground v.1.15,2013-05-01 14:55:00,
2013-05-01 05:00:00,60.9,60.3,30.05,NNW,331,3.0,3.0,98,0.00,,,0.00,0,Wunderground v.1.15,2013-05-01 15:00:00,
2013-05-01 05:10:00,60.5,60.2,30.06,NNW,331,3.0,3.0,99,0.00,,,0.00,0,Wunderground v.1.15,2013-05-01 15:10:00,
2013-05-01 05:15:00,60.6,60.3,30.06,NNW,331,4.0,4.0,99,0.00,,,0.00,0,Wunderground v.1.15,2013-05-01 15:15:00,
2013-05-01 05:20:00,60.8,60.5,30.06,NNW,331,4.0,4.0,99,0.00,,,0.00,0,Wunderground v.1.15,2013-05-01 15:20:00,
2013-05-01 05:30:00,60.9,60.6,30.06,NNW,331,2.0,3.0,99,0.00,,,0.00,0,Wunderground v.1.15,2013-05-01 15:30:00,
2013-05-01 05:35:00,61.0,60.7,30.06,NNW,331,2.0,3.0,99,0.00,,,0.00,0,Wunderground v.1.15,2013-05-01 15:35:00,
2013-05-01 05:40:00,61.2,60.9,30.07,NNW,331,1.0,1.0,99,0.00,,,0.00,0,Wunderground v.1.15,2013-05-01 15:40:00,
2013-05-01 05:45:00,61.2,60.9,30.07,NNW,331,2.0,2.0,99,0.00,,,0.00,0,Wunderground v.1.15,2013-05-01 15:45:00,
2013-05-01 05:55:00,60.9,60.6,30.07,NNW,331,2.0,2.0,99,0.00,,,0.00,5,Wunderground v.1.15,2013-05-01 15:55:00,
2013-05-01 06:00:00,60.9,60.6,30.07,NNW,331,2.0,3.0,99,0.00,,,0.00,7,Wunderground v.1.15,2013-05-01 16:00:00,
2013-05-01 06:10:00,60.9,60.9,30.08,NNW,331,3.0,4.0,100,0.00,,,0.00,14,Wunderground v.1.15,2013-05-01 16:10:00,
2013-05-01 06:15:00,61.4,61.4,30.08,NNW,331,3.0,4.0,100,0.00,,,0.00,19,Wunderground v.1.15,2013-05-01 16:15:00,
2013-05-01 06:20:00,62.0,62.0,30.08,NNW,331,3.0,3.0,100,0.00,,,0.00,30,Wunderground v.1.15,2013-05-01 16:20:00,
2013-05-01 06:30:00,62.9,62.6,30.08,NNW,331,2.0,2.0,99,0.00,,,0.00,53,Wunderground v.1.15,2013-05-01 16:30:00,
2013-05-01 06:35:00,63.2,62.6,30.09,NNW,331,2.0,2.0,98,0.00,,,0.00,69,Wunderground v.1.15,2013-05-01 16:35:00,
2013-05-01 06:40:00,63.4,62.8,30.09,NNW,331,1.0,1.0,98,0.00,,,0.00,86,Wunderground v.1.15,2013-05-01 16:40:00,
2013-05-01 06:45:00,63.8,63.5,30.09,NNW,331,1.0,1.0,99,0.00,,,0.00,107,Wunderground v.1.15,2013-05-01 16:45:00,
2013-05-01 06:50:00,64.4,63.8,30.09,NNW,331,1.0,1.0,98,0.00,,,0.00,128,Wunderground v.1.15,2013-05-01 16:50:00,
2013-05-01 07:00:00,65.9,65.0,30.09,NNW,331,0.0,0.0,97,0.00,,,0.00,174,Wunderground v.1.15,2013-05-01 17:00:00,
2013-05-01 07:10:00,67.4,65.9,30.10,NNW,331,0.0,0.0,95,0.00,,,0.00,214,Wunderground v.1.15,2013-05-01 17:10:00,
2013-05-01 07:15:00,68.2,66.1,30.10,NNW,332,1.0,1.0,93,0.00,,,0.00,234,Wunderground v.1.15,2013-05-01 17:15:00,
2013-05-01 07:20:00,69.1,66.7,30.10,NNW,332,0.0,0.0,92,0.00,,,0.00,253,Wunderground v.1.15,2013-05-01 17:20:00,
2013-05-01 07:25:00,69.9,66.5,30.10,North,355,1.0,2.0,89,0.00,,,0.00,272,Wunderground v.1.15,2013-05-01 17:25:00,
2013-05-01 07:30:00,70.7,66.6,30.10,North,5,2.0,2.0,87,0.00,,,0.00,294,Wunderground v.1.15,2013-05-01 17:30:00,
2013-05-01 07:40:00,72.1,67.0,30.10,North,5,0.0,1.0,84,0.00,,,0.00,334,Wunderground v.1.15,2013-05-01 17:40:00,
2013-05-01 07:45:00,72.9,67.8,30.10,NNE,18,1.0,2.0,84,0.00,,,0.00,352,Wunderground v.1.15,2013-05-01 17:45:00,
2013-05-01 07:50:00,73.1,67.3,30.10,NNE,23,1.0,1.0,82,0.00,,,0.00,373,Wunderground v.1.15,2013-05-01 17:50:00,
2013-05-01 07:55:00,73.4,67.6,30.10,NNE,23,1.0,1.0,82,0.00,,,0.00,394,Wunderground v.1.15,2013-05-01 17:55:00,
2013-05-01 08:00:00,73.6,67.4,30.10,NE,36,1.0,1.0,81,0.00,,,0.00,418,Wunderground v.1.15,2013-05-01 18:00:00,
2013-05-01 08:10:00,74.5,67.6,30.10,NE,36,1.0,1.0,79,0.00,,,0.00,455,Wunderground v.1.15,2013-05-01 18:10:00,
2013-05-01 08:15:00,75.0,68.0,30.10,NE,39,1.0,1.0,79,0.00,,,0.00,483,Wunderground v.1.15,2013-05-01 18:15:00,
2013-05-01 08:25:00,75.6,68.3,30.10,ENE,71,1.0,2.0,78,0.00,,,0.00,512,Wunderground v.1.15,2013-05-01 18:25:00,
2013-05-01 08:30:00,76.0,68.6,30.11,ESE,121,2.0,3.0,78,0.00,,,0.00,529,Wunderground v.1.15,2013-05-01 18:30:00,
2013-05-01 08:35:00,76.1,68.4,30.11,ESE,111,3.0,3.0,77,0.00,,,0.00,548,Wunderground v.1.15,2013-05-01 18:35:00,
2013-05-01 08:40:00,76.3,68.6,30.10,East,80,3.0,3.0,77,0.00,,,0.00,566,Wunderground v.1.15,2013-05-01 18:40:00,
2013-05-01 08:50:00,76.7,68.9,30.11,ESE,121,3.0,6.0,77,0.00,,,0.00,603,Wunderground v.1.15,2013-05-01 18:50:00,
2013-05-01 08:55:00,76.5,68.7,30.10,ESE,119,5.0,6.0,77,0.00,,,0.00,615,Wunderground v.1.15,2013-05-01 18:55:00,
2013-05-01 09:00:00,76.6,68.8,30.11,SE,126,5.0,9.0,77,0.00,,,0.00,635,Wunderground v.1.15,2013-05-01 19:00:00,
2013-05-01 09:10:00,76.1,69.5,30.11,ENE,72,6.0,7.0,80,0.00,,,0.00,668,Wunderground v.1.15,2013-05-01 19:10:00,
2013-05-01 09:20:00,76.1,70.6,30.11,ESE,109,6.0,6.0,83,0.00,,,0.00,701,Wunderground v.1.15,2013-05-01 19:20:00,
2013-05-01 09:25:00,76.2,69.9,30.11,ESE,117,6.0,11.0,81,0.00,,,0.00,719,Wunderground v.1.15,2013-05-01 19:25:00,
2013-05-01 09:30:00,76.1,70.9,30.11,NNE,19,6.0,7.0,84,0.00,,,0.00,742,Wunderground v.1.15,2013-05-01 19:30:00,
2013-05-01 09:40:00,76.1,70.6,30.11,SE,136,4.0,5.0,83,0.00,,,0.00,900,Wunderground v.1.15,2013-05-01 19:40:00,
2013-05-01 09:45:00,76.2,70.3,30.11,ESE,115,6.0,7.0,82,0.00,,,0.00,793,Wunderground v.1.15,2013-05-01 19:45:00,
2013-05-01 09:50:00,76.4,69.4,30.11,ENE,71,7.0,10.0,79,0.00,,,0.00,796,Wunderground v.1.15,2013-05-01 19:50:00,
2013-05-01 10:00:00,76.6,71.0,30.11,ESE,118,8.0,8.0,83,0.00,,,0.00,817,Wunderground v.1.15,2013-05-01 20:00:00,
2013-05-01 10:10:00,76.3,70.8,30.10,NNE,30,7.0,7.0,83,0.00,,,0.00,875,Wunderground v.1.15,2013-05-01 20:10:00,
2013-05-01 10:15:00,76.3,70.8,30.11,ENE,69,8.0,8.0,83,0.00,,,0.00,875,Wunderground v.1.15,2013-05-01 20:15:00,
2013-05-01 10:20:00,76.3,71.1,30.11,NE,52,8.0,8.0,84,0.00,,,0.00,902,Wunderground v.1.15,2013-05-01 20:20:00,
2013-05-01 10:25:00,76.3,71.1,30.10,SE,128,7.0,11.0,84,0.00,,,0.00,1062,Wunderground v.1.15,2013-05-01 20:25:00,
2013-05-01 10:30:00,75.6,71.5,30.10,NE,55,9.0,9.0,87,0.00,,,0.00,443,Wunderground v.1.15,2013-05-01 20:30:00,
2013-05-01 10:40:00,75.2,71.4,30.10,East,80,9.0,9.0,88,0.00,,,0.00,371,Wunderground v.1.15,2013-05-01 20:40:00,
2013-05-01 10:45:00,75.2,72.1,30.11,SE,129,8.0,9.0,90,0.00,,,0.00,408,Wunderground v.1.15,2013-05-01 20:45:00,
2013-05-01 10:50:00,74.9,71.4,30.10,ENE,73,8.0,9.0,89,0.00,,,0.00,524,Wunderground v.1.15,2013-05-01 20:50:00,
2013-05-01 10:55:00,74.6,70.8,30.11,East,94,8.0,10.0,88,0.00,,,0.00,487,Wunderground v.1.15,2013-05-01 20:55:00,
2013-05-01 11:00:00,74.3,70.5,30.10,ESE,106,10.0,12.0,88,0.00,,,0.00,504,Wunderground v.1.15,2013-05-01 21:00:00,
2013-05-01 11:10:00,74.7,71.2,30.10,SE,141,7.0,7.0,89,0.00,,,0.00,452,Wunderground v.1.15,2013-05-01 21:10:00,
2013-05-01 11:15:00,74.8,71.3,30.10,East,82,7.0,10.0,89,0.00,,,0.00,441,Wunderground v.1.15,2013-05-01 21:15:00,
2013-05-01 11:20:00,74.7,71.2,30.10,SSE,149,7.0,7.0,89,0.00,,,0.00,464,Wunderground v.1.15,2013-05-01 21:20:00,
2013-05-01 11:25:00,74.7,71.2,30.10,East,87,7.0,7.0,89,0.00,,,0.00,343,Wunderground v.1.15,2013-05-01 21:25:00,
2013-05-01 11:35:00,74.6,71.1,30.10,ESE,120,5.0,10.0,89,0.00,,,0.00,338,Wunderground v.1.15,2013-05-01 21:35:00,
2013-05-01 11:40:00,74.2,70.7,30.09,ENE,76,5.0,5.0,89,0.00,,,0.00,202,Wunderground v.1.15,2013-05-01 21:40:00,
2013-05-01 11:45:00,74.1,70.3,30.09,East,99,6.0,6.0,88,0.00,,,0.00,269,Wunderground v.1.15,2013-05-01 21:45:00,
2013-05-01 11:55:00,73.6,69.8,30.09,East,90,6.0,7.0,88,0.00,,,0.00,192,Wunderground v.1.15,2013-05-01 21:55:00,
2013-05-01 12:00:00,73.4,69.6,30.09,ESE,111,7.0,7.0,88,0.00,,,0.00,267,Wunderground v.1.15,2013-05-01 22:00:00,
2013-05-01 12:10:00,73.6,69.8,30.09,East,86,5.0,5.0,88,0.00,,,0.00,206,Wunderground v.1.15,2013-05-01 22:10:00,
2013-05-01 12:15:00,73.7,69.9,30.09,East,96,4.0,5.0,88,0.00,,,0.00,183,Wunderground v.1.15,2013-05-01 22:15:00,
2013-05-01 12:20:00,73.6,69.8,30.09,ESE,123,4.0,4.0,88,0.00,,,0.00,137,Wunderground v.1.15,2013-05-01 22:20:00,
2013-05-01 12:25:00,73.3,69.5,30.09,ESE,107,5.0,5.0,88,0.00,,,0.00,158,Wunderground v.1.15,2013-05-01 22:25:00,
2013-05-01 12:35:00,73.1,69.7,30.09,ESE,120,6.0,9.0,89,0.00,,,0.00,179,Wunderground v.1.15,2013-05-01 22:35:00,
2013-05-01 12:40:00,73.0,69.6,30.09,ENE,73,7.0,8.0,89,0.00,,,0.00,206,Wunderground v.1.15,2013-05-01 22:40:00,
2013-05-01 12:45:00,73.1,69.3,30.09,ENE,76,7.0,8.0,88,0.00,,,0.00,206,Wunderground v.1.15,2013-05-01 22:45:00,
2013-05-01 12:55:00,73.2,69.1,30.09,East,80,7.0,11.0,87,0.00,,,0.00,218,Wunderground v.1.15,2013-05-01 22:55:00,
2013-05-01 13:00:00,73.1,69.0,30.09,ESE,121,7.0,7.0,87,0.00,,,0.00,188,Wunderground v.1.15,2013-05-01 23:00:00,
2013-05-01 13:10:00,73.2,69.4,30.08,SE,126,5.0,5.0,88,0.00,,,0.00,118,Wunderground v.1.15,2013-05-01 23:10:00,
2013-05-01 13:20:00,72.8,68.7,30.08,SE,136,8.0,8.0,87,0.00,,,0.00,156,Wunderground v.1.15,2013-05-01 23:20:00,
2013-05-01 13:25:00,72.9,69.1,30.08,ESE,123,7.0,11.0,88,0.00,,,0.00,141,Wunderground v.1.15,2013-05-01 23:25:00,
2013-05-01 13:30:00,72.9,69.1,30.08,ESE,111,6.0,6.0,88,0.00,,,0.00,181,Wunderground v.1.15,2013-05-01 23:30:00,
2013-05-01 13:40:00,72.9,69.8,30.07,East,81,5.0,5.0,90,0.00,,,0.00,121,Wunderground v.1.15,2013-05-01 23:40:00,
2013-05-01 13:45:00,72.8,70.0,30.07,ENE,71,5.0,5.0,91,0.00,,,0.00,148,Wunderground v.1.15,2013-05-01 23:45:00,
2013-05-01 13:50:00,72.6,69.5,30.07,ENE,68,5.0,5.0,90,0.00,,,0.00,165,Wunderground v.1.15,2013-05-01 23:50:00,
2013-05-01 14:00:00,72.5,69.4,30.06,ESE,113,5.0,5.0,90,0.00,,,0.00,107,Wunderground v.1.15,2013-05-02 00:00:00,
2013-05-01 14:10:00,72.4,69.3,30.06,ESE,121,5.0,11.0,90,0.00,,,0.00,98,Wunderground v.1.15,2013-05-02 00:10:00,
2013-05-01 14:15:00,72.4,69.0,30.06,ESE,105,3.0,11.0,89,0.00,,,0.00,100,Wunderground v.1.15,2013-05-02 00:15:00,
2013-05-01 14:25:00,72.5,69.7,30.06,ESE,108,3.0,4.0,91,0.00,,,0.00,86,Wunderground v.1.15,2013-05-02 00:25:00,
2013-05-01 14:30:00,72.5,70.0,30.06,SE,130,3.0,7.0,92,0.00,,,0.00,95,Wunderground v.1.15,2013-05-02 00:30:00,
2013-05-01 14:35:00,72.2,69.4,30.07,NE,54,4.0,7.0,91,0.00,,,0.00,79,Wunderground v.1.15,2013-05-02 00:35:00,
2013-05-01 14:40:00,72.2,69.4,30.06,ENE,63,3.0,3.0,91,0.00,,,0.00,72,Wunderground v.1.15,2013-05-02 00:40:00,
2013-05-01 14:50:00,72.2,69.7,30.07,East,99,2.0,3.0,92,0.00,,,0.00,83,Wunderground v.1.15,2013-05-02 00:50:00,
2013-05-01 14:55:00,72.1,69.6,30.07,SE,128,3.0,3.0,92,0.00,,,0.00,84,Wunderground v.1.15,2013-05-02 00:55:00,
2013-05-01 15:00:00,72.1,70.0,30.06,SE,128,2.0,2.0,93,0.00,,,0.00,56,Wunderground v.1.15,2013-05-02 01:00:00,
2013-05-01 15:10:00,71.9,69.8,30.06,SE,132,4.0,4.0,93,0.00,,,0.00,77,Wunderground v.1.15,2013-05-02 01:10:00,
2013-05-01 15:20:00,71.8,69.7,30.06,East,92,3.0,3.0,93,0.00,,,0.00,56,Wunderground v.1.15,2013-05-02 01:20:00,
2013-05-01 15:25:00,71.8,69.7,30.06,SE,134,3.0,3.0,93,0.00,,,0.00,56,Wunderground v.1.15,2013-05-02 01:25:00,
2013-05-01 15:30:00,71.8,69.7,30.06,SE,134,3.0,3.0,93,0.00,,,0.00,58,Wunderground v.1.15,2013-05-02 01:30:00,
2013-05-01 15:35:00,71.7,69.6,30.06,ESE,123,2.0,5.0,93,0.00,,,0.00,42,Wunderground v.1.15,2013-05-02 01:35:00,
2013-05-01 15:40:00,71.8,70.0,30.06,East,101,3.0,4.0,94,0.00,,,0.00,46,Wunderground v.1.15,2013-05-02 01:40:00,
2013-05-01 15:45:00,71.8,70.0,30.06,SE,134,4.0,4.0,94,0.00,,,0.00,44,Wunderground v.1.15,2013-05-02 01:45:00,
2013-05-01 15:50:00,71.8,70.0,30.06,SE,134,2.0,2.0,94,0.00,,,0.00,46,Wunderground v.1.15,2013-05-02 01:50:00,
2013-05-01 16:00:00,71.7,69.9,30.06,SE,134,3.0,3.0,94,0.00,,,0.00,37,Wunderground v.1.15,2013-05-02 02:00:00,
2013-05-01 16:10:00,71.7,70.2,30.06,East,89,3.0,3.0,95,0.00,,,0.00,46,Wunderground v.1.15,2013-05-02 02:10:00,
2013-05-01 16:15:00,71.6,70.1,30.06,East,100,4.0,5.0,95,0.00,,,0.00,39,Wunderground v.1.15,2013-05-02 02:15:00,
2013-05-01 16:25:00,71.4,69.9,30.06,SE,134,4.0,5.0,95,0.00,,,0.01,47,Wunderground v.1.15,2013-05-02 02:25:00,
2013-05-01 16:30:00,71.3,69.8,30.06,SE,130,4.0,6.0,95,0.00,,,0.01,28,Wunderground v.1.15,2013-05-02 02:30:00,
2013-05-01 16:40:00,71.2,70.0,30.06,ENE,73,5.0,5.0,96,0.00,,,0.01,40,Wunderground v.1.15,2013-05-02 02:40:00,
2013-05-01 16:45:00,71.0,69.8,30.06,ESE,105,5.0,9.0,96,0.00,,,0.01,44,Wunderground v.1.15,2013-05-02 02:45:00,
2013-05-01 16:50:00,71.0,69.8,30.06,East,99,6.0,6.0,96,0.00,,,0.01,46,Wunderground v.1.15,2013-05-02 02:50:00,
2013-05-01 16:55:00,71.0,69.5,30.06,NE,40,5.0,6.0,95,0.00,,,0.01,35,Wunderground v.1.15,2013-05-02 02:55:00,
2013-05-01 17:00:00,71.2,69.7,30.06,East,93,3.0,4.0,95,0.00,,,0.01,30,Wunderground v.1.15,2013-05-02 03:00:00,
2013-05-01 17:10:00,71.2,69.7,30.06,NE,47,5.0,6.0,95,0.00,,,0.01,30,Wunderground v.1.15,2013-05-02 03:10:00,
2013-05-01 17:15:00,71.2,69.7,30.06,East,99,5.0,6.0,95,0.00,,,0.01,23,Wunderground v.1.15,2013-05-02 03:15:00,
2013-05-01 17:20:00,71.2,69.7,30.06,ENE,59,5.0,5.0,95,0.00,,,0.01,32,Wunderground v.1.15,2013-05-02 03:20:00,
2013-05-01 17:25:00,71.2,70.0,30.07,East,96,4.0,9.0,96,0.00,,,0.01,21,Wunderground v.1.15,2013-05-02 03:25:00,
2013-05-01 17:30:00,71.3,70.4,30.06,ESE,110,4.0,6.0,97,0.00,,,0.01,14,Wunderground v.1.15,2013-05-02 03:30:00,
2013-05-01 17:35:00,71.0,70.1,30.06,East,90,6.0,6.0,97,0.00,,,0.01,14,Wunderground v.1.15,2013-05-02 03:35:00,
2013-05-01 17:45:00,70.6,70.0,30.06,ENE,71,7.0,9.0,98,0.00,,,0.01,18,Wunderground v.1.15,2013-05-02 03:45:00,
2013-05-01 17:50:00,70.5,69.9,30.07,SE,142,7.0,7.0,98,0.00,,,0.01,14,Wunderground v.1.15,2013-05-02 03:50:00,
2013-05-01 17:55:00,70.5,69.9,30.06,ENE,77,6.0,7.0,98,0.00,,,0.01,18,Wunderground v.1.15,2013-05-02 03:55:00,
2013-05-01 18:00:00,70.4,69.8,30.07,ENE,72,7.0,7.0,98,0.00,,,0.01,11,Wunderground v.1.15,2013-05-02 04:00:00,
2013-05-01 18:05:00,70.4,69.8,30.07,East,98,7.0,10.0,98,0.00,,,0.01,14,Wunderground v.1.15,2013-05-02 04:05:00,
2013-05-01 18:10:00,70.3,69.7,30.07,East,86,6.0,6.0,98,0.00,,,0.01,9,Wunderground v.1.15,2013-05-02 04:10:00,
2013-05-01 18:15:00,70.3,69.4,30.07,ENE,68,6.0,10.0,97,0.00,,,0.01,9,Wunderground v.1.15,2013-05-02 04:15:00,
2013-05-01 18:20:00,70.4,69.2,30.07,SE,126,6.0,6.0,96,0.00,,,0.01,9,Wunderground v.1.15,2013-05-02 04:20:00,
2013-05-01 18:25:00,70.4,69.2,30.07,North,360,5.0,6.0,96,0.00,,,0.01,11,Wunderground v.1.15,2013-05-02 04:25:00,
2013-05-01 18:30:00,70.4,68.9,30.07,NE,54,3.0,3.0,95,0.00,,,0.01,5,Wunderground v.1.15,2013-05-02 04:30:00,
2013-05-01 18:35:00,70.4,68.9,30.07,NE,55,3.0,3.0,95,0.00,,,0.01,0,Wunderground v.1.15,2013-05-02 04:35:00,
2013-05-01 18:40:00,70.5,69.0,30.07,NE,44,3.0,3.0,95,0.00,,,0.01,0,Wunderground v.1.15,2013-05-02 04:40:00,
2013-05-01 18:45:00,70.4,68.9,30.07,ENE,75,3.0,3.0,95,0.00,,,0.01,0,Wunderground v.1.15,2013-05-02 04:45:00,
2013-05-01 18:55:00,70.3,68.8,30.07,ENE,72,3.0,6.0,95,0.00,,,0.01,0,Wunderground v.1.15,2013-05-02 04:55:00,
2013-05-01 19:00:00,70.3,68.8,30.08,NE,34,4.0,4.0,95,0.00,,,0.01,0,Wunderground v.1.15,2013-05-02 05:00:00,
2013-05-01 19:10:00,70.3,68.8,30.09,NE,44,2.0,2.0,95,0.00,,,0.01,0,Wunderground v.1.15,2013-05-02 05:10:00,
2013-05-01 19:15:00,70.3,68.8,30.09,NE,44,1.0,2.0,95,0.00,,,0.01,0,Wunderground v.1.15,2013-05-02 05:15:00,
2013-05-01 19:25:00,70.3,69.1,30.09,NNE,29,2.0,3.0,96,0.00,,,0.01,0,Wunderground v.1.15,2013-05-02 05:25:00,
2013-05-01 19:30:00,70.2,69.0,30.09,NNE,19,2.0,2.0,96,0.00,,,0.01,0,Wunderground v.1.15,2013-05-02 05:30:00,
2013-05-01 19:35:00,70.2,69.0,30.10,NE,36,2.0,2.0,96,0.00,,,0.01,0,Wunderground v.1.15,2013-05-02 05:35:00,
2013-05-01 19:40:00,70.2,69.3,30.10,ENE,71,2.0,3.0,97,0.00,,,0.01,0,Wunderground v.1.15,2013-05-02 05:40:00,
2013-05-01 19:45:00,70.3,69.4,30.10,NNE,30,3.0,3.0,97,0.00,,,0.01,0,Wunderground v.1.15,2013-05-02 05:45:00,
2013-05-01 19:50:00,70.2,69.6,30.10,ENE,68,4.0,4.0,98,0.00,,,0.01,0,Wunderground v.1.15,2013-05-02 05:50:00,
2013-05-01 19:55:00,70.1,69.5,30.10,NE,47,4.0,4.0,98,0.00,,,0.01,0,Wunderground v.1.15,2013-05-02 05:55:00,
2013-05-01 20:00:00,69.8,69.2,30.11,NE,48,4.0,5.0,98,0.00,,,0.01,0,Wunderground v.1.15,2013-05-02 06:00:00,
2013-05-01 20:10:00,69.4,68.8,30.11,NNE,12,3.0,3.0,98,0.00,,,0.01,0,Wunderground v.1.15,2013-05-02 06:10:00,
2013-05-01 20:15:00,69.2,68.6,30.11,North,5,2.0,6.0,98,0.00,,,0.01,0,Wunderground v.1.15,2013-05-02 06:15:00,
2013-05-01 20:20:00,69.0,68.4,30.11,NNE,22,2.0,2.0,98,0.00,,,0.01,0,Wunderground v.1.15,2013-05-02 06:20:00,
2013-05-01 20:25:00,68.9,68.3,30.11,North,355,2.0,2.0,98,0.00,,,0.01,0,Wunderground v.1.15,2013-05-02 06:25:00,
2013-05-01 20:30:00,68.7,68.1,30.11,North,355,2.0,3.0,98,0.00,,,0.01,0,Wunderground v.1.15,2013-05-02 06:30:00,
2013-05-01 20:35:00,68.7,67.8,30.11,NNE,15,2.0,4.0,97,0.00,,,0.01,0,Wunderground v.1.15,2013-05-02 06:35:00,
2013-05-01 20:45:00,69.0,67.8,30.12,North,360,4.0,4.0,96,0.00,,,0.01,0,Wunderground v.1.15,2013-05-02 06:45:00,
2013-05-01 20:50:00,69.0,67.8,30.12,NNE,15,4.0,4.0,96,0.00,,,0.01,0,Wunderground v.1.15,2013-05-02 06:50:00,
2013-05-01 20:55:00,69.0,67.5,30.12,NNE,15,3.0,4.0,95,0.00,,,0.01,0,Wunderground v.1.15,2013-05-02 06:55:00,
2013-05-01 21:00:00,68.9,67.4,30.12,NNE,15,2.0,2.0,95,0.00,,,0.01,0,Wunderground v.1.15,2013-05-02 07:00:00,
2013-05-01 21:10:00,68.9,67.4,30.12,North,355,1.0,2.0,95,0.00,,,0.01,0,Wunderground v.1.15,2013-05-02 07:10:00,
2013-05-01 21:15:00,69.0,67.5,30.12,NNW,347,2.0,2.0,95,0.00,,,0.01,0,Wunderground v.1.15,2013-05-02 07:15:00,
2013-05-01 21:20:00,68.9,67.4,30.12,North,5,1.0,1.0,95,0.00,,,0.01,0,Wunderground v.1.15,2013-05-02 07:20:00,
2013-05-01 21:25:00,68.9,67.4,30.13,North,5,1.0,1.0,95,0.00,,,0.01,0,Wunderground v.1.15,2013-05-02 07:25:00,
2013-05-01 21:35:00,68.8,67.3,30.12,North,5,1.0,1.0,95,0.00,,,0.01,0,Wunderground v.1.15,2013-05-02 07:35:00,
2013-05-01 21:40:00,68.6,67.1,30.12,North,5,1.0,1.0,95,0.00,,,0.01,0,Wunderground v.1.15,2013-05-02 07:40:00,
2013-05-01 21:45:00,68.5,67.0,30.13,North,5,0.0,1.0,95,0.00,,,0.01,0,Wunderground v.1.15,2013-05-02 07:45:00,
2013-05-01 21:50:00,68.4,66.9,30.13,North,5,0.0,0.0,95,0.00,,,0.01,0,Wunderground v.1.15,2013-05-02 07:50:00,
2013-05-01 22:00:00,67.9,66.7,30.13,North,5,0.0,2.0,96,0.00,,,0.01,0,Wunderground v.1.15,2013-05-02 08:00:00,
2013-05-01 22:10:00,67.6,66.4,30.13,North,5,1.0,1.0,96,0.00,,,0.01,0,Wunderground v.1.15,2013-05-02 08:10:00,
2013-05-01 22:20:00,67.7,66.5,30.13,North,5,2.0,2.0,96,0.00,,,0.01,0,Wunderground v.1.15,2013-05-02 08:20:00,
2013-05-01 22:25:00,67.6,66.4,30.13,North,5,1.0,2.0,96,0.00,,,0.01,0,Wunderground v.1.15,2013-05-02 08:25:00,
2013-05-01 22:30:00,67.3,66.1,30.13,North,5,0.0,0.0,96,0.00,,,0.01,0,Wunderground v.1.15,2013-05-02 08:30:00,
2013-05-01 22:35:00,67.1,65.9,30.13,North,5,0.0,0.0,96,0.00,,,0.01,0,Wunderground v.1.15,2013-05-02 08:35:00,
2013-05-01 22:40:00,66.8,65.9,30.13,North,5,0.0,0.0,97,0.00,,,0.01,0,Wunderground v.1.15,2013-05-02 08:40:00,
2013-05-01 22:50:00,66.1,65.5,30.14,North,5,0.0,0.0,98,0.00,,,0.01,0,Wunderground v.1.15,2013-05-02 08:50:00,
2013-05-01 22:55:00,65.9,65.3,30.14,North,5,0.0,0.0,98,0.00,,,0.01,0,Wunderground v.1.15,2013-05-02 08:55:00,
2013-05-01 23:00:00,65.7,65.1,30.14,North,5,0.0,0.0,98,0.00,,,0.01,0,Wunderground v.1.15,2013-05-02 09:00:00,
2013-05-01 23:10:00,65.4,64.8,30.13,North,5,0.0,3.0,98,0.00,,,0.01,0,Wunderground v.1.15,2013-05-02 09:10:00,
2013-05-01 23:15:00,65.3,64.7,30.13,North,5,1.0,3.0,98,0.00,,,0.01,0,Wunderground v.1.15,2013-05-02 09:15:00,
2013-05-01 23:20:00,65.3,65.0,30.14,North,5,2.0,2.0,99,0.00,,,0.01,0,Wunderground v.1.15,2013-05-02 09:20:00,
2013-05-01 23:25:00,65.3,65.0,30.13,North,5,1.0,2.0,99,0.00,,,0.01,0,Wunderground v.1.15,2013-05-02 09:25:00,
2013-05-01 23:30:00,65.1,64.8,30.13,North,5,1.0,1.0,99,0.00,,,0.01,0,Wunderground v.1.15,2013-05-02 09:30:00,
2013-05-01 23:35:00,65.0,64.7,30.13,North,5,1.0,1.0,99,0.00,,,0.01,0,Wunderground v.1.15,2013-05-02 09:35:00,
2013-05-01 23:45:00,65.4,65.4,30.13,North,9,1.0,3.0,100,0.00,,,0.01,0,Wunderground v.1.15,2013-05-02 09:45:00,
2013-05-01 23:50:00,65.5,65.2,30.13,North,5,2.0,2.0,99,0.00,,,0.01,0,Wunderground v.1.15,2013-05-02 09:50:00,
2013-05-01 23:55:00,65.6,65.6,30.13,North,5,1.0,2.0,100,0.00,,,0.00,0,Wunderground v.1.15,2013-05-02 09:55:00,